Time,TemperatureF,DewpointF,PressureIn,WindDirection,WindDirectionDegrees,WindSpeedMPH,WindSpeedGustMPH,Humidity,HourlyPrecipIn,Conditions,Clouds,dailyrainin,SoftwareType,DateUTC
2013-02-15 00:02:00,40.0,36.0,-100.00,SE,135,7.0,14.0,85,-99.99,,,-99.99,,2013-02-15 05:02:00,
2013-02-15 00:12:00,40.0,36.0,-100.00,SE,140,9.0,17.0,85,-99.99,,,-99.99,,2013-02-15 05:12:00,
2013-02-15 00:22:00,40.0,36.0,-100.00,SE,140,9.0,17.0,85,-99.99,,,-99.99,,2013-02-15 05:22:00,
2013-02-15 00:32:00,40.0,36.0,-100.00,SE,140,8.0,15.0,85,-99.99,,,-99.99,,2013-02-15 05:32:00,
2013-02-15 00:42:00,40.0,35.0,-100.00,North,10,9.0,16.0,84,-99.99,,,-99.99,,2013-02-15 05:42:00,
2013-02-15 00:52:00,40.0,35.0,-100.00,North,10,9.0,16.0,84,-99.99,,,-99.99,,2013-02-15 05:52:00,
2013-02-15 01:02:00,39.0,35.0,-100.00,NNE,20,13.0,15.0,84,-99.99,,,-99.99,,2013-02-15 06:02:00,
2013-02-15 01:11:00,39.0,35.0,-100.00,NNE,20,13.0,15.0,84,-99.99,,,-99.99,,2013-02-15 06:11:00,
2013-02-15 01:32:00,39.0,34.0,-100.00,North,10,10.0,14.0,83,-99.99,,,-99.99,,2013-02-15 06:32:00,
2013-02-15 01:42:00,39.0,34.0,-100.00,North,5,11.0,14.0,82,-99.99,,,-99.99,,2013-02-15 06:42:00,
2013-02-15 01:52:00,39.0,34.0,-100.00,North,5,11.0,14.0,82,-99.99,,,-99.99,,2013-02-15 06:52:00,
2013-02-15 02:01:00,39.0,34.0,-100.00,North,5,11.0,14.0,82,-99.99,,,-99.99,,2013-02-15 07:01:00,
2013-02-15 02:11:00,39.0,34.0,-100.00,North,5,10.0,13.0,82,-99.99,,,-99.99,,2013-02-15 07:11:00,
2013-02-15 02:21:00,39.0,34.0,-100.00,North,5,10.0,13.0,82,-99.99,,,-99.99,,2013-02-15 07:21:00,
2013-02-15 02:32:00,39.0,34.0,-100.00,North,10,10.0,14.0,81,-99.99,,,-99.99,,2013-02-15 07:32:00,
2013-02-15 02:42:00,39.0,33.0,-100.00,North,10,10.0,13.0,79,-99.99,,,-99.99,,2013-02-15 07:42:00,
2013-02-15 02:52:00,39.0,33.0,-100.00,North,10,10.0,13.0,79,-99.99,,,-99.99,,2013-02-15 07:52:00,
2013-02-15 03:01:00,39.0,32.0,-100.00,North,5,12.0,15.0,77,-99.99,,,-99.99,,2013-02-15 08:01:00,
2013-02-15 03:11:00,39.0,32.0,-100.00,North,10,11.0,16.0,76,-99.99,,,-99.99,,2013-02-15 08:11:00,
2013-02-15 03:21:00,39.0,32.0,-100.00,North,10,11.0,16.0,76,-99.99,,,-99.99,,2013-02-15 08:21:00,
2013-02-15 03:32:00,39.0,32.0,-100.00,North,5,12.0,15.0,77,-99.99,,,-99.99,,2013-02-15 08:32:00,
2013-02-15 03:42:00,39.0,33.0,-100.00,North,10,12.0,15.0,77,-99.99,,,-99.99,,2013-02-15 08:42:00,
2013-02-15 03:52:00,39.0,33.0,-100.00,North,10,12.0,15.0,77,-99.99,,,-99.99,,2013-02-15 08:52:00,
2013-02-15 04:12:00,40.0,33.0,-100.00,North,10,14.0,18.0,78,-99.99,,,-99.99,,2013-02-15 09:12:00,
2013-02-15 04:22:00,40.0,33.0,-100.00,North,10,14.0,18.0,78,-99.99,,,-99.99,,2013-02-15 09:22:00,
2013-02-15 04:32:00,40.0,34.0,-100.00,North,10,13.0,16.0,79,-99.99,,,-99.99,,2013-02-15 09:32:00,
2013-02-15 04:42:00,40.0,34.0,-100.00,NNE,15,13.0,16.0,81,-99.99,,,-99.99,,2013-02-15 09:42:00,
2013-02-15 04:52:00,40.0,34.0,-100.00,NNE,15,13.0,16.0,81,-99.99,,,-99.99,,2013-02-15 09:52:00,
2013-02-15 05:01:00,40.0,34.0,-100.00,North,5,12.0,15.0,81,-99.99,,,-99.99,,2013-02-15 10:01:00,
2013-02-15 05:11:00,39.0,34.0,-100.00,North,0,7.0,11.0,82,-99.99,,,-99.99,,2013-02-15 10:11:00,
2013-02-15 05:21:00,39.0,34.0,-100.00,North,0,7.0,11.0,82,-99.99,,,-99.99,,2013-02-15 10:21:00,
2013-02-15 05:32:00,39.0,35.0,-100.00,North,0,4.0,11.0,84,-99.99,,,-99.99,,2013-02-15 10:32:00,
2013-02-15 05:42:00,39.0,35.0,-100.00,North,0,4.0,11.0,84,-99.99,,,-99.99,,2013-02-15 10:42:00,
2013-02-15 05:52:00,39.0,35.0,-100.00,North,0,4.0,11.0,84,-99.99,,,-99.99,,2013-02-15 10:52:00,
2013-02-15 06:01:00,39.0,35.0,-100.00,SSW,195,6.0,12.0,84,-99.99,,,-99.99,,2013-02-15 11:01:00,
2013-02-15 06:11:00,39.0,35.0,-100.00,South,190,6.0,13.0,84,-99.99,,,-99.99,,2013-02-15 11:11:00,
2013-02-15 06:23:00,39.0,35.0,-100.00,South,190,6.0,13.0,84,-99.99,,,-99.99,,2013-02-15 11:23:00,
2013-02-15 06:32:00,40.0,35.0,-100.00,North,5,10.0,13.0,82,-99.99,,,-99.99,,2013-02-15 11:32:00,
2013-02-15 06:42:00,40.0,35.0,-100.00,North,5,10.0,13.0,82,-99.99,,,-99.99,,2013-02-15 11:42:00,
2013-02-15 06:52:00,40.0,35.0,-100.00,North,5,10.0,13.0,82,-99.99,,,-99.99,,2013-02-15 11:52:00,
2013-02-15 07:02:00,39.0,34.0,-100.00,North,0,5.0,10.0,82,-99.99,,,-99.99,,2013-02-15 12:02:00,
2013-02-15 07:11:00,40.0,35.0,-100.00,North,0,5.0,11.0,82,-99.99,,,-99.99,,2013-02-15 12:11:00,
2013-02-15 07:22:00,40.0,35.0,-100.00,North,0,5.0,11.0,82,-99.99,,,-99.99,,2013-02-15 12:22:00,
2013-02-15 07:32:00,40.0,35.0,-100.00,South,190,5.0,12.0,83,-99.99,,,-99.99,,2013-02-15 12:32:00,
2013-02-15 07:42:00,40.0,35.0,-100.00,South,180,11.0,13.0,84,-99.99,,,-99.99,,2013-02-15 12:42:00,
2013-02-15 07:52:00,40.0,35.0,-100.00,South,180,11.0,13.0,84,-99.99,,,-99.99,,2013-02-15 12:52:00,
2013-02-15 08:02:00,40.0,36.0,-100.00,South,180,10.0,13.0,83,-99.99,,,-99.99,,2013-02-15 13:02:00,
2013-02-15 08:11:00,41.0,36.0,-100.00,South,190,7.0,13.0,81,-99.99,,,-99.99,,2013-02-15 13:11:00,
2013-02-15 08:22:00,41.0,36.0,-100.00,South,190,7.0,13.0,81,-99.99,,,-99.99,,2013-02-15 13:22:00,
2013-02-15 08:32:00,42.0,36.0,-100.00,SE,140,12.0,18.0,77,-99.99,,,-99.99,,2013-02-15 13:32:00,
2013-02-15 08:42:00,43.0,35.0,-100.00,SE,130,8.0,15.0,74,-99.99,,,-99.99,,2013-02-15 13:42:00,
2013-02-15 08:52:00,43.0,35.0,-100.00,SE,130,8.0,15.0,74,-99.99,,,-99.99,,2013-02-15 13:52:00,
2013-02-15 09:01:00,44.0,35.0,-100.00,ESE,110,11.0,19.0,71,-99.99,,,-99.99,,2013-02-15 14:01:00,
2013-02-15 09:12:00,44.0,35.0,-100.00,East,95,9.0,17.0,71,-99.99,,,-99.99,,2013-02-15 14:12:00,
2013-02-15 09:22:00,44.0,35.0,-100.00,East,95,9.0,17.0,71,-99.99,,,-99.99,,2013-02-15 14:22:00,
2013-02-15 09:32:00,44.0,34.0,-100.00,North,5,9.0,18.0,69,-99.99,,,-99.99,,2013-02-15 14:32:00,
2013-02-15 09:42:00,44.0,34.0,-100.00,North,5,9.0,18.0,68,-99.99,,,-99.99,,2013-02-15 14:42:00,
2013-02-15 09:52:00,44.0,34.0,-100.00,North,5,9.0,18.0,68,-99.99,,,-99.99,,2013-02-15 14:52:00,
2013-02-15 10:02:00,45.0,35.0,-100.00,ENE,75,11.0,21.0,68,-99.99,,,-99.99,,2013-02-15 15:02:00,
2013-02-15 10:11:00,45.0,36.0,-100.00,NE,45,11.0,21.0,70,-99.99,,,-99.99,,2013-02-15 15:11:00,
2013-02-15 10:22:00,45.0,36.0,-100.00,NE,45,11.0,21.0,70,-99.99,,,-99.99,,2013-02-15 15:22:00,
2013-02-15 10:32:00,45.0,36.0,-100.00,ENE,65,9.0,20.0,70,-99.99,,,-99.99,,2013-02-15 15:32:00,
2013-02-15 10:42:00,45.0,36.0,-100.00,North,10,9.0,20.0,69,-99.99,,,-99.99,,2013-02-15 15:42:00,
2013-02-15 10:52:00,45.0,36.0,-100.00,North,10,9.0,20.0,69,-99.99,,,-99.99,,2013-02-15 15:52:00,
2013-02-15 11:02:00,45.0,35.0,-100.00,North,5,7.0,18.0,68,-99.99,,,-99.99,,2013-02-15 16:02:00,
2013-02-15 11:12:00,45.0,35.0,-100.00,NE,55,10.0,18.0,66,-99.99,,,-99.99,,2013-02-15 16:12:00,
2013-02-15 11:22:00,45.0,35.0,-100.00,NE,55,10.0,18.0,66,-99.99,,,-99.99,,2013-02-15 16:22:00,
2013-02-15 11:32:00,46.0,35.0,-100.00,NE,50,11.0,17.0,65,-99.99,,,-99.99,,2013-02-15 16:32:00,
2013-02-15 11:42:00,46.0,35.0,-100.00,North,5,8.0,15.0,64,-99.99,,,-99.99,,2013-02-15 16:42:00,
2013-02-15 11:52:00,46.0,35.0,-100.00,North,5,8.0,15.0,64,-99.99,,,-99.99,,2013-02-15 16:52:00,
2013-02-15 12:01:00,46.0,33.0,-100.00,North,5,7.0,14.0,60,-99.99,,,-99.99,,2013-02-15 17:01:00,
2013-02-15 12:11:00,46.0,34.0,-100.00,NE,35,9.0,14.0,62,-99.99,,,-99.99,,2013-02-15 17:11:00,
2013-02-15 12:21:00,46.0,34.0,-100.00,NE,35,9.0,14.0,62,-99.99,,,-99.99,,2013-02-15 17:21:00,
2013-02-15 12:32:00,47.0,35.0,-100.00,NE,35,10.0,14.0,62,-99.99,,,-99.99,,2013-02-15 17:32:00,
2013-02-15 12:42:00,46.0,34.0,-100.00,NE,35,7.0,15.0,63,-99.99,,,-99.99,,2013-02-15 17:42:00,
2013-02-15 12:52:00,46.0,34.0,-100.00,NE,35,7.0,15.0,63,-99.99,,,-99.99,,2013-02-15 17:52:00,
2013-02-15 13:02:00,47.0,35.0,-100.00,NE,35,7.0,15.0,63,-99.99,,,-99.99,,2013-02-15 18:02:00,
2013-02-15 13:12:00,47.0,34.0,-100.00,NNE,30,8.0,14.0,61,-99.99,,,-99.99,,2013-02-15 18:12:00,
2013-02-15 13:22:00,47.0,34.0,-100.00,NNE,30,8.0,14.0,61,-99.99,,,-99.99,,2013-02-15 18:22:00,
2013-02-15 13:32:00,47.0,34.0,-100.00,NNE,25,8.0,15.0,60,-99.99,,,-99.99,,2013-02-15 18:32:00,
2013-02-15 13:42:00,48.0,35.0,-100.00,NNE,30,6.0,14.0,61,-99.99,,,-99.99,,2013-02-15 18:42:00,
2013-02-15 13:52:00,48.0,35.0,-100.00,NNE,30,6.0,14.0,61,-99.99,,,-99.99,,2013-02-15 18:52:00,
2013-02-15 14:02:00,48.0,35.0,-100.00,NNE,25,9.0,11.0,59,-99.99,,,-99.99,,2013-02-15 19:02:00,
2013-02-15 14:11:00,48.0,35.0,-100.00,NNE,25,10.0,13.0,59,-99.99,,,-99.99,,2013-02-15 19:11:00,
2013-02-15 14:22:00,48.0,35.0,-100.00,NNE,25,10.0,13.0,59,-99.99,,,-99.99,,2013-02-15 19:22:00,
2013-02-15 14:32:00,48.0,35.0,-100.00,NNE,25,13.0,16.0,60,-99.99,,,-99.99,,2013-02-15 19:32:00,
2013-02-15 14:42:00,48.0,35.0,-100.00,NNE,30,12.0,16.0,62,-99.99,,,-99.99,,2013-02-15 19:42:00,
2013-02-15 14:52:00,48.0,35.0,-100.00,NNE,30,12.0,16.0,62,-99.99,,,-99.99,,2013-02-15 19:52:00,
2013-02-15 15:11:00,48.0,36.0,-100.00,NNE,30,10.0,19.0,63,-99.99,,,-99.99,,2013-02-15 20:11:00,
2013-02-15 15:22:00,48.0,36.0,-100.00,NNE,30,10.0,19.0,63,-99.99,,,-99.99,,2013-02-15 20:22:00,
2013-02-15 15:32:00,48.0,35.0,-100.00,NNE,25,13.0,18.0,62,-99.99,,,-99.99,,2013-02-15 20:32:00,
2013-02-15 15:42:00,48.0,35.0,-100.00,NNE,25,11.0,16.0,61,-99.99,,,-99.99,,2013-02-15 20:42:00,
2013-02-15 15:52:00,48.0,35.0,-100.00,NNE,25,11.0,16.0,61,-99.99,,,-99.99,,2013-02-15 20:52:00,
2013-02-15 16:02:00,48.0,34.0,-100.00,NNE,20,13.0,17.0,60,-99.99,,,-99.99,,2013-02-15 21:02:00,
2013-02-15 16:11:00,48.0,34.0,-100.00,NNE,20,11.0,19.0,59,-99.99,,,-99.99,,2013-02-15 21:11:00,
2013-02-15 16:22:00,48.0,34.0,-100.00,NNE,20,11.0,19.0,59,-99.99,,,-99.99,,2013-02-15 21:22:00,
2013-02-15 16:32:00,47.0,34.0,-100.00,NNE,15,15.0,21.0,60,-99.99,,,-99.99,,2013-02-15 21:32:00,
2013-02-15 16:42:00,47.0,35.0,-100.00,NNE,20,13.0,22.0,63,-99.99,,,-99.99,,2013-02-15 21:42:00,
2013-02-15 16:52:00,47.0,35.0,-100.00,NNE,20,13.0,22.0,63,-99.99,,,-99.99,,2013-02-15 21:52:00,
2013-02-15 17:02:00,46.0,34.0,-100.00,NNE,20,18.0,24.0,63,-99.99,,,-99.99,,2013-02-15 22:02:00,
2013-02-15 17:11:00,45.0,34.0,-100.00,NNE,25,18.0,27.0,64,-99.99,,,-99.99,,2013-02-15 22:11:00,
2013-02-15 17:22:00,45.0,34.0,-100.00,NNE,25,18.0,27.0,64,-99.99,,,-99.99,,2013-02-15 22:22:00,
2013-02-15 17:32:00,45.0,34.0,-100.00,NNE,20,18.0,25.0,64,-99.99,,,-99.99,,2013-02-15 22:32:00,
2013-02-15 17:42:00,45.0,34.0,-100.00,NNE,15,17.0,27.0,64,-99.99,,,-99.99,,2013-02-15 22:42:00,
2013-02-15 17:52:00,45.0,34.0,-100.00,NNE,15,17.0,27.0,64,-99.99,,,-99.99,,2013-02-15 22:52:00,
2013-02-15 18:02:00,45.0,34.0,-100.00,NNE,15,16.0,26.0,65,-99.99,,,-99.99,,2013-02-15 23:02:00,
2013-02-15 18:11:00,44.0,34.0,-100.00,NNE,25,18.0,22.0,66,-99.99,,,-99.99,,2013-02-15 23:11:00,
2013-02-15 18:21:00,44.0,34.0,-100.00,NNE,25,18.0,22.0,66,-99.99,,,-99.99,,2013-02-15 23:21:00,
2013-02-15 18:32:00,44.0,34.0,-100.00,NE,40,13.0,20.0,68,-99.99,,,-99.99,,2013-02-15 23:32:00,
2013-02-15 18:42:00,44.0,34.0,-100.00,NNE,30,17.0,24.0,69,-99.99,,,-99.99,,2013-02-15 23:42:00,
2013-02-15 18:52:00,44.0,34.0,-100.00,NNE,30,17.0,24.0,69,-99.99,,,-99.99,,2013-02-15 23:52:00,
2013-02-15 19:02:00,44.0,35.0,-100.00,NE,35,22.0,29.0,70,-99.99,,,-99.99,,2013-02-16 00:02:00,
2013-02-15 19:11:00,44.0,35.0,-100.00,NE,40,18.0,28.0,71,-99.99,,,-99.99,,2013-02-16 00:11:00,
2013-02-15 19:22:00,44.0,35.0,-100.00,NE,40,18.0,28.0,71,-99.99,,,-99.99,,2013-02-16 00:22:00,
2013-02-15 19:32:00,44.0,35.0,-100.00,NE,50,17.0,26.0,72,-99.99,,,-99.99,,2013-02-16 00:32:00,
2013-02-15 19:42:00,44.0,35.0,-100.00,NE,55,19.0,26.0,72,-99.99,,,-99.99,,2013-02-16 00:42:00,
2013-02-15 19:52:00,44.0,35.0,-100.00,NE,55,19.0,26.0,72,-99.99,,,-99.99,,2013-02-16 00:52:00,
2013-02-15 20:02:00,44.0,36.0,-100.00,ENE,60,17.0,23.0,74,-99.99,,,-99.99,,2013-02-16 01:02:00,
2013-02-15 20:11:00,44.0,37.0,-100.00,ENE,70,13.0,21.0,76,-99.99,,,-99.99,,2013-02-16 01:11:00,
2013-02-15 20:21:00,44.0,37.0,-100.00,ENE,70,13.0,21.0,76,-99.99,,,-99.99,,2013-02-16 01:21:00,
2013-02-15 20:32:00,44.0,37.0,-100.00,East,80,15.0,21.0,79,-99.99,,,-99.99,,2013-02-16 01:32:00,
2013-02-15 20:42:00,44.0,38.0,-100.00,East,90,15.0,23.0,81,-99.99,,,-99.99,,2013-02-16 01:42:00,
2013-02-15 20:52:00,44.0,38.0,-100.00,East,90,15.0,23.0,81,-99.99,,,-99.99,,2013-02-16 01:52:00,
2013-02-15 21:01:00,43.0,38.0,-100.00,East,100,14.0,22.0,82,-99.99,,,-99.99,,2013-02-16 02:01:00,
2013-02-15 21:11:00,43.0,39.0,-100.00,ESE,105,13.0,20.0,83,-99.99,,,-99.99,,2013-02-16 02:11:00,
2013-02-15 21:22:00,43.0,39.0,-100.00,ESE,105,13.0,20.0,83,-99.99,,,-99.99,,2013-02-16 02:22:00,
2013-02-15 21:42:00,43.0,39.0,-100.00,SE,135,15.0,21.0,83,-99.99,,,-99.99,,2013-02-16 02:42:00,
2013-02-15 21:52:00,43.0,39.0,-100.00,SE,135,15.0,21.0,83,-99.99,,,-99.99,,2013-02-16 02:52:00,
2013-02-15 22:02:00,43.0,39.0,-100.00,ESE,110,14.0,22.0,84,-99.99,,,-99.99,,2013-02-16 03:02:00,
2013-02-15 22:11:00,43.0,39.0,-100.00,ESE,115,12.0,22.0,84,-99.99,,,-99.99,,2013-02-16 03:11:00,
2013-02-15 22:21:00,43.0,39.0,-100.00,ESE,115,12.0,22.0,84,-99.99,,,-99.99,,2013-02-16 03:21:00,
2013-02-15 22:32:00,44.0,39.0,-100.00,North,10,9.0,20.0,84,-99.99,,,-99.99,,2013-02-16 03:32:00,
2013-02-15 22:42:00,44.0,39.0,-100.00,SSE,160,9.0,21.0,82,-99.99,,,-99.99,,2013-02-16 03:42:00,
2013-02-15 22:52:00,44.0,39.0,-100.00,SSE,160,9.0,21.0,82,-99.99,,,-99.99,,2013-02-16 03:52:00,
2013-02-15 23:01:00,44.0,38.0,-100.00,NNE,25,13.0,21.0,81,-99.99,,,-99.99,,2013-02-16 04:01:00,
2013-02-15 23:11:00,45.0,34.0,-100.00,NNE,30,13.0,29.0,67,-99.99,,,-99.99,,2013-02-16 04:11:00,
2013-02-15 23:21:00,45.0,34.0,-100.00,NNE,30,13.0,29.0,67,-99.99,,,-99.99,,2013-02-16 04:21:00,
2013-02-15 23:32:00,44.0,32.0,-100.00,NNE,25,10.0,15.0,62,-99.99,,,-99.99,,2013-02-16 04:32:00,
2013-02-15 23:42:00,45.0,31.0,-100.00,NE,35,10.0,21.0,59,-99.99,,,-99.99,,2013-02-16 04:42:00,
2013-02-15 23:52:00,45.0,31.0,-100.00,NE,35,10.0,21.0,59,-99.99,,,-99.99,,2013-02-16 04:52:00,